カタログに戻る

TeikyoSat 4

TEIKYOSAT-4

運用中アマチュア無線SSO
NORAD 49396·PAYLOAD·🇯🇵 Japan

打ち上げ Nov 9, 2021 から Uchinoura Space Center

Loading…

次のパス (今後24時間)

TLE

最新Source: AMSAT

元期: Sep 14, 2026, 01:43 UTC

1 49396U 21102B   26257.07210072  .00001382  00000-0  89264-4 0  9995
2 49396  97.3629 283.0948 0011702 355.1823   4.9292 15.09771114266131

AllMySatでTeikyoSat 4をリアルタイム追跡

Download on the App Store